Flag for U.S.A. Weather past 2 weeks in Hampton, Virginia, U.S.A.

Now
76 °F

Sunny.


Feels Like: 78 °F
Forecast: 68 / 84 °F
Wind: 7 mph from Southeast

Location: Langley Air Force Base

Current Time: Aug 29, 2015 at 8:15:50 PM

Latest Report: Aug 29, 2015 at 7:58 PM


Visibility: 10 mi

Pressure: 30.15 "Hg

Humidity: 63%

Dew point: 62 °F

Location of HamptonLocation

Historic Weather in Hampton — Graph

°F

Hampton temperature yesterday

Maximum temperature yesterday: 82 °F (at 2:58 PM)
Minimum temperature yesterday: 63 °F (at 4:58 AM)
Average temperature yesterday: 73 °F

Past Weeks' High & Low Weather Summary

 TemperatureHumidityPressure
High90 °F (Aug 20, 4:58 PM)97% (Aug 21, 1:58 AM)30.25 "Hg (Aug 21, 1:58 AM)
Low61 °F (Aug 29, 5:58 AM)38% (Aug 28, 2:58 PM)29.86 "Hg (Aug 24, 4:58 PM)
Average77 °F71%30.05 "Hg
* Reported Aug 14 6:58 PM — Aug 29 6:58 PM, Hampton, Weather by CustomWeather, © 2015

Note: Actual official high and low records may vary slightly from our data, if they occured in-between our weather recording intervals... More about our weather records

Advertising

Hampton weather history for previous 24 hours

 ConditionsComfort  
Time TempWeatherWind HumidityBarometerVisibility
6:58 PM
Sat, Aug 29
76 °FSunny.5 mph64%30.14 "Hg10 mi
5:58 PM78 °FSunny.8 mph59%30.15 "Hg10 mi
4:58 PM80 °FSunny.10 mph52%30.17 "Hg10 mi
3:58 PM81 °FSunny.8 mph53%30.18 "Hg10 mi
2:58 PM83 °FSunny.9 mph50%30.19 "Hg10 mi
1:58 PM83 °FSunny.9 mph50%30.21 "Hg10 mi
12:58 PM82 °FSunny.8 mph48%30.22 "Hg10 mi
11:58 AM82 °FSunny.7 mph49%30.24 "Hg10 mi
10:58 AM80 °FSunny.7 mph52%30.25 "Hg10 mi
9:58 AM79 °FSunny.8 mph56%30.25 "Hg10 mi
8:58 AM77 °FSunny.6 mph66%30.24 "Hg10 mi
7:58 AM68 °FSunny.1 mph90%30.24 "Hg10 mi
6:58 AM63 °FPassing clouds.No wind93%30.22 "Hg10 mi
5:58 AM61 °FClear.2 mph93%30.20 "Hg10 mi
4:58 AM62 °FClear.1 mph92%30.20 "Hg10 mi
2:58 AM63 °FClear.2 mph92%30.20 "Hg10 mi
1:58 AM64 °FClear.2 mph89%30.21 "Hg10 mi
12:58 AM65 °FClear.No wind86%30.22 "Hg10 mi
11:58 PM
Fri, Aug 28
65 °FClear.No wind82%30.21 "Hg10 mi
10:58 PM66 °FClear.2 mph82%30.21 "Hg10 mi
9:58 PM73 °FClear.5 mph64%30.21 "Hg10 mi
8:58 PM74 °FClear.5 mph65%30.19 "Hg10 mi
Weather by CustomWeather, © 2015

See weather overviewHow to use our weather pages